Simultaneous Nadir Overpasses (SNOs) Predictions

Prediction of SNOs between GOES-14 and AQUA Satellite Orbit:

Table of predicted SNOs for the next 14.0 days since TLE Epoch: 10/12/2024
Index Date Time (GOES-14) GOES-14 Lat,Lon AQUA Lat,Lon Distance(km) Time Diff (sec)
1 10/12/2024 09:50:40 -0.06,-108.57 0.75,-112.35 430.20 80
2 10/14/2024 09:30:04 -0.07,-108.58 -0.17,-107.97 69.34 80
3 10/14/2024 21:49:58 0.06,-108.51 -0.86,-112.78 486.62 80
4 10/16/2024 21:34:39 0.06,-108.52 0.07,-108.38 15.29 80
5 10/19/2024 09:36:19 -0.06,-108.60 -0.02,-108.74 15.85 80
6 10/21/2024 09:15:32 -0.06,-108.60 -0.97,-104.31 488.31 80
7 10/21/2024 21:35:24 0.05,-108.52 -0.05,-109.11 66.59 80
8 10/23/2024 21:19:53 0.06,-108.53 0.91,-104.67 439.67 80
9 10/24/2024 09:39:34 -0.05,-108.61 0.15,-109.42 93.04 80
